DLH4H EGLL-EDDF

Flight info

Callsign DLH4H
Flight time N/A
Altitude 35000
Route BPK Q295 MATCH DCT REDFA DCT TACHA DCT NOLRU DCT DIXAT DIXAT1A
Aircraft A21N/M-SDE2E3FGIJ1LORWXYZ/HB1

Departure

Time N/A
Airport London Heathrow Airport (EGLL)

Arrival

Time 2026-05-05 09:19
Airport Frankfurt Main Airport (EDDF)
Time Latitude Longitude Altitude Speed Heading
2026-05-05 08:41 51.12065 3.80215 30907 ft 475 kts 107°
2026-05-05 08:41 51.11284 3.85378 30915 ft 476 kts 107°
2026-05-05 08:42 51.09739 3.95552 30908 ft 476 kts 107°
2026-05-05 08:42 51.08184 4.05731 30913 ft 477 kts 107°
2026-05-05 08:43 51.06613 4.15942 30912 ft 476 kts 107°
2026-05-05 08:43 51.05031 4.26157 30913 ft 476 kts 107°
2026-05-05 08:44 51.03451 4.36290 30911 ft 476 kts 107°
2026-05-05 08:44 51.01857 4.46463 30907 ft 476 kts 107°
2026-05-05 08:45 51.00255 4.56619 30908 ft 476 kts 107°
2026-05-05 08:45 50.98634 4.66810 30901 ft 477 kts 108°
2026-05-05 08:46 50.97052 4.76989 30898 ft 477 kts 107°
2026-05-05 08:46 50.95483 4.87130 30893 ft 476 kts 107°
2026-05-05 08:47 50.93912 4.97258 30888 ft 476 kts 108°
2026-05-05 08:47 50.92330 5.07436 30888 ft 476 kts 107°
2026-05-05 08:48 50.90745 5.17599 30884 ft 476 kts 107°
2026-05-05 08:48 50.89157 5.27760 30882 ft 476 kts 107°
2026-05-05 08:49 50.87577 5.37840 30882 ft 477 kts 107°
2026-05-05 08:49 50.85952 5.47999 30882 ft 477 kts 108°
2026-05-05 08:50 50.84299 5.58151 30884 ft 478 kts 108°
2026-05-05 08:50 50.82335 5.68168 30890 ft 477 kts 113°
2026-05-05 08:51 50.80182 5.78014 30889 ft 476 kts 113°
2026-05-05 08:51 50.78025 5.87859 30894 ft 476 kts 113°
2026-05-05 08:52 50.75858 5.97715 30885 ft 476 kts 113°
2026-05-05 08:52 50.73693 6.07560 30886 ft 476 kts 113°
2026-05-05 08:53 50.71527 6.17383 30885 ft 475 kts 113°
2026-05-05 08:53 50.69358 6.27185 30881 ft 475 kts 112°
2026-05-05 08:54 50.67175 6.36996 30879 ft 476 kts 113°
2026-05-05 08:54 50.64985 6.46807 30882 ft 476 kts 112°
2026-05-05 08:55 50.62800 6.56586 30879 ft 476 kts 112°
2026-05-05 08:55 50.60607 6.66396 30878 ft 476 kts 114°
2026-05-05 08:56 50.58413 6.76181 30878 ft 475 kts 113°
2026-05-05 08:56 50.56235 6.85877 30849 ft 471 kts 113°
2026-05-05 08:56 50.55144 6.90708 30464 ft 466 kts 113°
2026-05-05 08:57 50.54059 6.95492 29681 ft 465 kts 113°
2026-05-05 08:57 50.53072 7.00263 28850 ft 468 kts 106°
2026-05-05 08:57 50.52748 7.05375 27886 ft 475 kts 91°
2026-05-05 08:57 50.53153 7.10476 26648 ft 486 kts 78°
2026-05-05 08:58 50.54305 7.15522 25250 ft 496 kts 65°
2026-05-05 08:58 50.55920 7.20318 24081 ft 498 kts 62°
2026-05-05 08:58 50.57568 7.25016 23153 ft 494 kts 62°
2026-05-05 08:58 50.59190 7.29662 22545 ft 485 kts 62°
2026-05-05 08:59 50.60779 7.34295 21901 ft 477 kts 62°
2026-05-05 08:59 50.62325 7.38872 21186 ft 471 kts 62°
2026-05-05 08:59 50.63842 7.43411 20428 ft 467 kts 63°
2026-05-05 08:59 50.65310 7.47827 19687 ft 463 kts 63°
2026-05-05 09:00 50.66443 7.52510 18824 ft 460 kts 79°
2026-05-05 09:00 50.66493 7.57470 18070 ft 452 kts 100°
2026-05-05 09:00 50.65474 7.62056 17420 ft 441 kts 120°
2026-05-05 09:00 50.63653 7.65772 16790 ft 431 kts 138°
2026-05-05 09:01 50.61231 7.68427 16153 ft 422 kts 154°
2026-05-05 09:01 50.58624 7.70472 15611 ft 416 kts 155°
2026-05-05 09:01 50.56023 7.72505 15597 ft 418 kts 155°
2026-05-05 09:01 50.53449 7.74536 15377 ft 419 kts 155°
2026-05-05 09:02 50.50862 7.76600 14692 ft 416 kts 155°
2026-05-05 09:02 50.48297 7.78655 14033 ft 412 kts 154°
2026-05-05 09:02 50.45803 7.80695 13392 ft 408 kts 153°
2026-05-05 09:02 50.43392 7.82964 12760 ft 404 kts 148°
2026-05-05 09:03 50.41124 7.85468 12480 ft 399 kts 144°
2026-05-05 09:03 50.38934 7.88159 12451 ft 401 kts 143°
2026-05-05 09:03 50.36750 7.90873 12382 ft 400 kts 143°
2026-05-05 09:03 50.34576 7.93573 12069 ft 399 kts 143°
2026-05-05 09:04 50.32413 7.96253 11539 ft 395 kts 143°
2026-05-05 09:04 50.30273 7.98898 10949 ft 391 kts 143°
2026-05-05 09:04 50.28199 8.01514 10377 ft 386 kts 141°
2026-05-05 09:04 50.26261 8.04371 9935 ft 378 kts 135°
2026-05-05 09:05 50.24556 8.07399 9732 ft 363 kts 130°
2026-05-05 09:05 50.23069 8.10385 9750 ft 343 kts 129°
2026-05-05 09:05 50.21648 8.13281 9757 ft 323 kts 129°
2026-05-05 09:05 50.20334 8.15961 9769 ft 305 kts 129°
2026-05-05 09:06 50.19070 8.18533 9772 ft 288 kts 130°
2026-05-05 09:06 50.17867 8.20971 9790 ft 284 kts 130°
2026-05-05 09:06 50.16667 8.23395 9808 ft 284 kts 130°
2026-05-05 09:06 50.15465 8.25818 9809 ft 284 kts 129°
2026-05-05 09:07 50.14261 8.28244 9830 ft 284 kts 129°
2026-05-05 09:07 50.13048 8.30688 9851 ft 285 kts 129°
2026-05-05 09:07 50.11840 8.33122 9862 ft 285 kts 129°
2026-05-05 09:07 50.10748 8.35682 9853 ft 287 kts 115°
2026-05-05 09:08 50.10305 8.38703 9862 ft 292 kts 93°
2026-05-05 09:08 50.10622 8.41820 9871 ft 296 kts 73°
2026-05-05 09:08 50.11346 8.44836 9873 ft 296 kts 70°
2026-05-05 09:08 50.12089 8.47788 9826 ft 297 kts 70°
2026-05-05 09:09 50.12838 8.50792 9424 ft 298 kts 70°
2026-05-05 09:09 50.13567 8.53772 9047 ft 296 kts 71°
2026-05-05 09:09 50.14286 8.56750 8681 ft 294 kts 70°
2026-05-05 09:09 50.14987 8.59680 8334 ft 291 kts 71°
2026-05-05 09:10 50.15692 8.62635 7984 ft 288 kts 71°
2026-05-05 09:10 50.16383 8.65546 7641 ft 286 kts 72°
2026-05-05 09:10 50.17065 8.68418 7323 ft 284 kts 71°
2026-05-05 09:10 50.17746 8.71292 6947 ft 281 kts 71°
2026-05-05 09:11 50.18421 8.74136 6625 ft 279 kts 71°
2026-05-05 09:11 50.19081 8.76924 6293 ft 276 kts 71°
2026-05-05 09:11 50.19744 8.79734 5951 ft 274 kts 71°
2026-05-05 09:11 50.20391 8.82499 5605 ft 273 kts 73°
2026-05-05 09:12 50.20624 8.85377 5214 ft 269 kts 101°
2026-05-05 09:12 50.19888 8.88000 4859 ft 264 kts 130°
2026-05-05 09:12 50.18464 8.89747 4518 ft 261 kts 155°
2026-05-05 09:12 50.16818 8.90822 4248 ft 256 kts 158°
2026-05-05 09:13 50.15223 8.91856 4155 ft 244 kts 158°
2026-05-05 09:13 50.13628 8.92564 3999 ft 234 kts 182°
2026-05-05 09:13 50.12143 8.91746 3977 ft 232 kts 221°
2026-05-05 09:13 50.11231 8.89703 3984 ft 230 kts 251°
2026-05-05 09:14 50.10770 8.87399 3999 ft 219 kts 254°
2026-05-05 09:14 50.10336 8.85197 3906 ft 206 kts 253°
2026-05-05 09:14 50.09892 8.83160 3613 ft 194 kts 251°
2026-05-05 09:14 50.09469 8.81343 3340 ft 183 kts 251°
2026-05-05 09:15 50.09021 8.79480 3064 ft 171 kts 251°
2026-05-05 09:15 50.08610 8.77790 2846 ft 159 kts 251°
2026-05-05 09:15 50.08231 8.76226 2656 ft 150 kts 250°
2026-05-05 09:15 50.07872 8.74748 2460 ft 146 kts 251°
2026-05-05 09:16 50.07514 8.73270 2283 ft 145 kts 251°
2026-05-05 09:16 50.07162 8.71811 2104 ft 144 kts 251°
2026-05-05 09:16 50.06811 8.70355 1924 ft 144 kts 251°
2026-05-05 09:16 50.06459 8.68894 1737 ft 143 kts 251°
2026-05-05 09:17 50.06114 8.67457 1550 ft 143 kts 251°
2026-05-05 09:17 50.05765 8.66006 1357 ft 143 kts 251°
2026-05-05 09:17 50.05419 8.64563 1167 ft 142 kts 251°
2026-05-05 09:17 50.05079 8.63113 982 ft 142 kts 251°
2026-05-05 09:18 50.04726 8.61687 805 ft 142 kts 249°
2026-05-05 09:18 50.04379 8.60245 620 ft 142 kts 252°
2026-05-05 09:18 50.04041 8.58817 428 ft 142 kts 251°
2026-05-05 09:18 50.03710 8.57396 350 ft 127 kts 251°
2026-05-05 09:19 50.03507 8.56555 343 ft 44 kts 249°
2026-05-05 09:19 50.03428 8.56155 341 ft 31 kts 275°
2026-05-05 09:19 50.03462 8.55839 340 ft 28 kts 281°
2026-05-05 09:19 50.03493 8.55714 340 ft 9 kts 346°
2026-05-05 09:20 50.03551 8.55740 341 ft 9 kts 51°
2026-05-05 09:20 50.03578 8.55829 341 ft 9 kts 69°
2026-05-05 09:20 50.03605 8.55935 342 ft 11 kts 69°
2026-05-05 09:20 50.03634 8.56053 343 ft 11 kts 70°
2026-05-05 09:21 50.03665 8.56183 343 ft 13 kts 71°
2026-05-05 09:21 50.03696 8.56328 344 ft 14 kts 71°
2026-05-05 09:21 50.03728 8.56462 347 ft 12 kts 70°
2026-05-05 09:21 50.03761 8.56599 348 ft 13 kts 67°
2026-05-05 09:22 50.03841 8.56666 350 ft 13 kts 11°
2026-05-05 09:22 50.03933 8.56694 351 ft 13 kts 12°
2026-05-05 09:22 50.04022 8.56722 355 ft 12 kts 12°
2026-05-05 09:22 50.04099 8.56746 358 ft 11 kts 12°
2026-05-05 09:23 50.04176 8.56772 362 ft 11 kts 13°
2026-05-05 09:23 50.04257 8.56799 365 ft 12 kts 12°
2026-05-05 09:23 50.04338 8.56826 369 ft 11 kts 12°
2026-05-05 09:23 50.04417 8.56849 371 ft 11 kts
2026-05-05 09:24 50.04499 8.56871 372 ft 12 kts 12°
2026-05-05 09:24 50.04575 8.56899 374 ft 10 kts 14°
2026-05-05 09:24 50.04635 8.56894 375 ft 8 kts 303°
2026-05-05 09:24 50.04652 8.56820 375 ft 4 kts 293°
2026-05-05 09:25 50.04653 8.56819 375 ft 0 kts 293°